Hourly Data Report for September 18, 2004

SHERBROOKE A
QUEBEC

45°26'00.000" N
71°41'00.000" W
241.40 m
7028124
71610
YSC

Download Data

Hourly Data (September 2004)
Hourly Data Report for September 18, 2004
TIME
LST
Temp Definition
°C
Dew Point Definition
°C
Rel Hum Definition
%
Precip. Amount Definition
mm

Wind Dir Definition
10's deg

Wind Spd Definition
km/h
Visibility Definition
km
Stn Press Definition
kPa
Hmdx Definition


Wind Chill Definition


Weather Definition


00:00 11.1 9.4 89   31 6 15.0 98.67      
01:00 10.9 7.7 81   34 11 15.0 98.74      
02:00 10.2 6.6 78   36 6 15.0 98.74      
03:00 9.6 5.6 76   2 4 15.0 98.71      
04:00 9.0 7.0 87   28 4 15.0 98.78      
05:00 8.4 5.7 83   33 4 15.0 98.83      
06:00 8.3 4.9 79   33 4 15.0 98.84      
07:00 8.4 5.9 84     0 24.1 98.91     Mostly Cloudy
08:00 9.2 4.9 74   33 4 24.1 98.89     Mostly Cloudy
09:00 9.6 4.8 72   34 6 24.1 98.89     Mostly Cloudy
10:00 10.2 5.1 71   32 9 24.1 98.85     Mostly Cloudy
11:00 11.1 5.3 67   30 11 24.1 98.83     Mostly Cloudy
12:00 11.9 5.1 63   31 17 24.1 98.86     Mostly Cloudy
13:00 13.1 4.1 54   34 15 24.1 98.84     Mostly Cloudy
14:00 13.4 4.6 55   31 15 24.1 98.86     Mostly Cloudy
15:00 13.1 4.8 57   30 19 24.1 98.85     Mostly Cloudy
16:00 11.4 3.7 59   31 13 24.1 98.91     Mostly Cloudy
17:00 10.9 3.8 62   33 9 15.0 98.97      
18:00 10.1 3.4 63   34 9 15.0 99.04      
19:00 9.6 2.6 62   36 7 15.0 99.13      
20:00 8.8 2.7 66   33 9 15.0 99.16      
21:00 8.4 3.0 69   31 11 15.0 99.16      
22:00 7.0 3.4 78   31 9 15.0 99.18      
23:00 6.3 3.4 82   31 7 15.0 99.16      

Notes on Data Quality.

Legend

  • E = Estimated
  • M = Missing
  • NA = Not Available*
  • [empty] = Indicates an unobserved value
Date modified: